Location: Breckenridge
(39.4820°N, 106.0380°W)
Time: 07:26:06
(UTC-06:00)

Envisat - Visible Passes

Search period start: 18 March 2019 00:00
Search period end: 28 March 2019 00:00
Orbit: 764 x 766 km, 98.2° (Epoch: 18 March)

Date Brightness Start Highest point End Pass type
(mag) Time Alt. Az. Time Alt. Az. Time Alt. Az.
18 Mar 4.0 20:07:16 10° S 20:12:10 51° W 20:17:07 10° NNW visible
19 Mar 6.1 21:12:53 10° WSW 21:14:55 12° W 21:16:58 10° WNW visible
20 Mar 5.1 20:33:30 10° SSW 20:37:50 28° W 20:42:11 10° NW visible
21 Mar 3.5 19:55:55 10° S 20:00:56 65° WSW 20:05:59 10° NNW visible
22 Mar 5.9 21:00:31 10° SW 21:03:35 16° W 21:06:40 10° NW visible
23 Mar 4.6 20:21:55 10° SSW 20:26:33 36° W 20:31:13 10° NNW visible
24 Mar 3.1 19:44:39 10° SSE 19:49:43 83° WSW 19:54:49 10° NNW visible
25 Mar 5.6 20:48:32 10° SW 20:52:15 20° W 20:56:00 10° NW visible
26 Mar 4.2 20:10:26 10° S 20:15:17 46° W 20:20:10 10° NNW visible
27 Mar 6.2 21:16:43 10° WSW 21:18:04 11° W 21:19:26 10° WNW visible
